| time (UTC) | temp C | wind direction | speed KPH | gust KPH | rain 1hr cm | rain 24hr cm | rain mn cm | humidity % | barometer mb |
| 20260510094524 | 17 | 2 | 0.0 | 0.0 | 0.00 | 0.00 | 0.00 | 83 | 1010.9 |
| 20260510093021 | 17 | 2 | 0.0 | 0.0 | 0.00 | 0.00 | 0.00 | 83 | 1010.8 |
| 20260510091540 | 17 | 2 | 0.0 | 0.0 | 0.00 | 0.00 | 0.00 | 83 | 1010.7 |
| 20260510090101 | 17 | 2 | 0.0 | 0.0 | 0.00 | 0.00 | 0.00 | 83 | 1010.7 |
| 20260510084557 | 17 | 2 | 0.0 | 0.0 | 0.00 | 0.00 | 0.00 | 82 | 1010.7 |
| 20260510083044 | 17 | 2 | 0.0 | 0.0 | 0.00 | 0.00 | 0.00 | 82 | 1010.6 |
| 20260510081545 | 17 | 2 | 0.0 | 0.0 | 0.00 | 0.00 | 0.00 | 80 | 1010.3 |
| 20260510080041 | 17 | 2 | 0.0 | 0.0 | 0.00 | 0.00 | 0.00 | 79 | 1010.0 |
| 20260510074538 | 17 | 2 | 0.0 | 0.0 | 0.00 | 0.00 | 0.00 | 79 | 1009.9 |
| 20260510073005 | 17 | 2 | 0.0 | 0.0 | 0.00 | 0.00 | 0.00 | 79 | 1009.8 |
| 20260510071510 | 18 | 2 | 0.0 | 0.0 | 0.00 | 0.00 | 0.00 | 78 | 1009.9 |
| 20260510070108 | 18 | 2 | 0.0 | 0.0 | 0.00 | 0.00 | 0.00 | 78 | 1009.8 |
| 20260510064611 | 18 | 2 | 0.0 | 0.0 | 0.00 | 0.00 | 0.00 | 77 | 1010.0 |
| 20260510063056 | 18 | 2 | 0.0 | 0.0 | 0.00 | 0.00 | 0.00 | 75 | 1009.8 |
| 20260510061554 | 18 | 2 | 0.0 | 0.0 | 0.00 | 0.00 | 0.00 | 75 | 1009.9 |
| 20260510060051 | 19 | 2 | 0.0 | 0.0 | 0.00 | 0.00 | 0.00 | 75 | 1010.2 |
| 20260510054546 | 20 | 2 | 0.0 | 0.0 | 0.00 | 0.00 | 0.00 | 75 | 1010.2 |
| 20260510053042 | 20 | 2 | 0.0 | 0.0 | 0.00 | 0.00 | 0.00 | 73 | 1009.8 |
| 20260510051540 | 20 | 2 | 0.0 | 0.0 | 0.00 | 0.00 | 0.00 | 72 | 1009.6 |
| 20260510050035 | 20 | 2 | 0.0 | 0.0 | 0.00 | 0.00 | 0.00 | 72 | 1009.4 |
| 20260510044535 | 20 | 2 | 0.0 | 0.0 | 0.00 | 0.00 | 0.00 | 72 | 1009.3 |
| 20260510043031 | 20 | 22 | 0.0 | 0.0 | 0.00 | 0.00 | 0.00 | 72 | 1009.2 |
| 20260510041531 | 20 | 22 | 0.0 | 0.0 | 0.00 | 0.00 | 0.00 | 71 | 1009.3 |
| 20260510040028 | 20 | 22 | 0.0 | 0.0 | 0.00 | 0.00 | 0.00 | 69 | 1009.0 |
| 20260510034525 | 21 | 45 | 0.0 | 0.0 | 0.00 | 0.00 | 0.00 | 68 | 1008.9 |
| 20260510033024 | 21 | 46 | 0.0 | 0.0 | 0.00 | 0.00 | 0.00 | 68 | 1008.9 |
| 20260510031525 | 21 | 57 | 0.0 | 0.0 | 0.00 | 0.00 | 0.00 | 67 | 1008.7 |
| 20260510030018 | 21 | 96 | 0.0 | 0.0 | 0.00 | 0.00 | 0.00 | 67 | 1008.5 |
| 20260510024517 | 21 | 99 | 0.0 | 0.0 | 0.00 | 0.00 | 0.00 | 66 | 1008.4 |
| 20260510023016 | 22 | 99 | 0.0 | 0.0 | 0.00 | 0.00 | 0.00 | 66 | 1008.2 |
| 20260510021517 | 22 | 96 | 0.0 | 0.0 | 0.00 | 0.00 | 0.00 | 66 | 1008.0 |
| 20260510020014 | 22 | 103 | 0.0 | 0.0 | 0.00 | 0.00 | 0.00 | 66 | 1007.8 |
| 20260510014517 | 23 | 96 | 0.0 | 0.0 | 0.00 | 0.00 | 0.00 | 64 | 1007.6 |
| 20260510013019 | 23 | 107 | 0.0 | 0.0 | 0.00 | 0.00 | 0.00 | 62 | 1007.5 |
| 20260510011519 | 24 | 118 | 0.0 | 0.0 | 0.00 | 0.00 | 0.00 | 60 | 1007.4 |
| 20260510010010 | 25 | 113 | 0.0 | 0.0 | 0.00 | 0.00 | 0.00 | 59 | 1007.2 |
| 20260510004510 | 26 | 114 | 0.0 | 0.0 | 0.00 | 0.00 | 0.00 | 57 | 1007.0 |
| 20260510003009 | 26 | 105 | 0.0 | 1.6 | 0.00 | 0.00 | 0.00 | 55 | 1006.7 |
| 20260510001509 | 26 | 118 | 0.0 | 3.2 | 0.00 | 0.00 | 0.00 | 53 | 1006.7 |
| 20260510000005 | 27 | 120 | 0.0 | 4.8 | 0.00 | 0.00 | 0.00 | 52 | 1006.6 |
| 20260509234517 | 27 | 113 | 0.0 | 1.6 | 0.00 | 0.00 | 0.00 | 50 | 1006.4 |
| 20260509233008 | 28 | 105 | 0.0 | 6.4 | 0.00 | 0.00 | 0.00 | 44 | 1006.3 |
| 20260509231504 | 28 | 92 | 0.0 | 1.6 | 0.00 | 0.00 | 0.00 | 41 | 1006.3 |
| 20260509230001 | 28 | 114 | 0.0 | 0.0 | 0.00 | 0.00 | 0.00 | 41 | 1006.3 |
| 20260509224501 | 28 | 123 | 0.0 | 0.0 | 0.00 | 0.00 | 0.00 | 38 | 1006.2 |
| 20260509223100 | 28 | 92 | 0.0 | 1.6 | 0.00 | 0.00 | 0.00 | 40 | 1006.3 |
| 20260509221600 | 28 | 136 | 0.0 | 0.0 | 0.00 | 0.00 | 0.00 | 40 | 1006.2 |
| 20260509220055 | 28 | 152 | 0.0 | 1.6 | 0.00 | 0.00 | 0.00 | 40 | 1006.1 |
| 20260509214552 | 28 | 5 | 0.0 | 1.6 | 0.00 | 0.00 | 0.00 | 39 | 1006.0 |
| 20260509213051 | 28 | 134 | 0.0 | 3.2 | 0.00 | 0.00 | 0.00 | 40 | 1006.2 |
| 20260509211558 | 28 | 113 | 0.0 | 11.3 | 0.00 | 0.00 | 0.00 | 39 | 1006.1 |
| 20260509210104 | 28 | 76 | 0.0 | 1.6 | 0.00 | 0.00 | 0.00 | 43 | 1006.3 |
| 20260509204543 | 28 | 44 | 0.0 | 3.2 | 0.00 | 0.00 | 0.00 | 43 | 1006.4 |
| 20260509203044 | 28 | 119 | 0.0 | 4.8 | 0.00 | 0.00 | 0.00 | 45 | 1006.6 |
| 20260509201550 | 27 | 115 | 0.0 | 4.8 | 0.00 | 0.00 | 0.00 | 45 | 1006.8 |
| 20260509200036 | 27 | 130 | 0.0 | 6.4 | 0.00 | 0.00 | 0.00 | 46 | 1006.9 |
| 20260509194531 | 27 | 146 | 0.0 | 0.0 | 0.00 | 0.00 | 0.00 | 49 | 1007.0 |
| 20260509193030 | 27 | 131 | 0.0 | 1.6 | 0.00 | 0.00 | 0.00 | 50 | 1007.1 |
| 20260509191527 | 27 | 101 | 0.0 | 0.0 | 0.00 | 0.00 | 0.00 | 49 | 1007.1 |
| 20260509190029 | 26 | 79 | 0.0 | 0.0 | 0.00 | 0.00 | 0.00 | 54 | 1007.3 |
| 20260509184529 | 26 | 83 | 0.0 | 0.0 | 0.00 | 0.00 | 0.00 | 57 | 1007.3 |
| 20260509183028 | 26 | 205 | 0.0 | 0.0 | 0.00 | 0.00 | 0.00 | 61 | 1007.5 |
| 20260509181518 | 26 | 213 | 0.0 | 1.6 | 0.00 | 0.00 | 0.00 | 63 | 1007.5 |
| 20260509180018 | 25 | 312 | 0.0 | 1.6 | 0.00 | 0.00 | 0.00 | 64 | 1007.7 |
| 20260509174509 | 25 | 95 | 0.0 | 3.2 | 0.00 | 0.00 | 0.00 | 67 | 1007.8 |
| 20260509173013 | 25 | 1 | 0.0 | 1.6 | 0.00 | 0.00 | 0.00 | 67 | 1008.0 |
| 20260509171503 | 24 | 276 | 0.0 | 0.0 | 0.00 | 0.00 | 0.00 | 68 | 1007.9 |
| 20260509170002 | 24 | 315 | 0.0 | 1.6 | 0.00 | 0.00 | 0.00 | 71 | 1007.9 |
| 20260509164527 | 23 | 241 | 0.0 | 4.8 | 0.00 | 0.00 | 0.00 | 73 | 1007.8 |
| 20260509163046 | 23 | 357 | 0.0 | 0.0 | 0.00 | 0.00 | 0.00 | 75 | 1007.7 |
| 20260509161524 | 23 | 307 | 0.0 | 0.0 | 0.00 | 0.00 | 0.00 | 78 | 1007.8 |
| 20260509160016 | 22 | 319 | 0.0 | 1.6 | 0.00 | 0.00 | 0.00 | 79 | 1007.7 |
| 20260509154513 | 22 | 312 | 0.0 | 1.6 | 0.00 | 0.00 | 0.00 | 80 | 1007.8 |
| 20260509153019 | 21 | 324 | 0.0 | 3.2 | 0.00 | 0.00 | 0.00 | 81 | 1007.8 |
| 20260509151540 | 21 | 354 | 0.0 | 0.0 | 0.00 | 0.00 | 0.00 | 82 | 1007.8 |
| 20260509150035 | 20 | 212 | 0.0 | 0.0 | 0.00 | 0.00 | 0.00 | 83 | 1007.8 |
| 20260509144531 | 20 | 245 | 0.0 | 0.0 | 0.00 | 0.00 | 0.00 | 84 | 1008.0 |
| 20260509143034 | 20 | 264 | 0.0 | 0.0 | 0.00 | 0.00 | 0.00 | 86 | 1008.0 |
| 20260509141527 | 19 | 280 | 0.0 | 0.0 | 0.00 | 0.00 | 0.00 | 86 | 1008.1 |
| 20260509140022 | 19 | 258 | 0.0 | 0.0 | 0.00 | 0.00 | 0.00 | 88 | 1008.2 |
| 20260509134515 | 18 | 222 | 0.0 | 0.0 | 0.00 | 0.00 | 0.00 | 89 | 1008.1 |
| 20260509133012 | 17 | 221 | 0.0 | 1.6 | 0.00 | 0.00 | 0.00 | 90 | 1008.1 |
| 20260509131508 | 17 | 225 | 0.0 | 0.0 | 0.00 | 0.00 | 0.00 | 90 | 1008.1 |
| 20260509130005 | 16 | 213 | 0.0 | 0.0 | 0.00 | 0.00 | 0.00 | 90 | 1008.1 |
| 20260509124602 | 16 | 212 | 0.0 | 0.0 | 0.00 | 0.00 | 0.00 | 91 | 1008.0 |
| 20260509123105 | 15 | 293 | 0.0 | 0.0 | 0.00 | 0.00 | 0.00 | 90 | 1007.8 |
| 20260509121600 | 15 | 293 | 0.0 | 1.6 | 0.00 | 0.00 | 0.00 | 90 | 1007.6 |
| 20260509120050 | 14 | 274 | 0.0 | 0.0 | 0.00 | 0.00 | 0.00 | 90 | 1007.4 |
| 20260509114557 | 14 | 275 | 0.0 | 0.0 | 0.00 | 0.00 | 0.00 | 89 | 1007.2 |
| 20260509113039 | 13 | 275 | 0.0 | 0.0 | 0.00 | 0.00 | 0.00 | 89 | 1007.1 |
| 20260509111537 | 13 | 273 | 0.0 | 0.0 | 0.00 | 0.00 | 0.00 | 89 | 1007.0 |
| 20260509110037 | 13 | 325 | 0.0 | 0.0 | 0.00 | 0.00 | 0.00 | 88 | 1006.8 |
| 20260509104533 | 14 | 325 | 0.0 | 0.0 | 0.00 | 0.00 | 0.00 | 87 | 1006.5 |
| 20260509103031 | 14 | 325 | 0.0 | 0.0 | 0.00 | 0.00 | 0.00 | 87 | 1006.4 |
| 20260509101530 | 14 | 325 | 0.0 | 0.0 | 0.00 | 0.00 | 0.00 | 87 | 1006.4 |
| 20260509100029 | 15 | 325 | 0.0 | 0.0 | 0.00 | 0.00 | 0.00 | 87 | 1006.5 |